Regional Weather Roundup
Issued by NWS

Home | Current Version | Previous Version | Text Only | Print | Product List | Glossary On
Versions: 1 2 3 4 5 6 7 8 9 10 11 12 13 14 15 16 17 18 19 20 21 22 23 24 25 26 27 28 29 30 31 32 33 34 35 36 37 38 39 40 41 42 43 44 45 46 47 48 49 50
000
ASUS45 KBOU 310807
RWRCO

WEATHER ROUNDUP FOR COLORADO
NATIONAL WEATHER SERVICE DENVER/BOULDER CO
200 AM MDT TUE MAY 31 2016

NOTE: "FAIR" INDICATES FEW OR NO CLOUDS BELOW 12000 FEET WITH NO
SIGNIFICANT WEATHER AND/OR OBSTRUCTIONS TO VISIBILITY.

COZ001>005-013-030-031-310900-
...NORTHWEST COLORADO...

CITY           SKY/WX    TMP DP  RH WIND       PRES   REMARKS
CRAIG          FAIR      43  34  70 W5        30.12S
HAYDEN         FAIR      48  30  49 CALM      30.12F
MEEKER         FAIR      47  37  68 E7        30.13S
MOUNT WERNER   NOT AVBL
STEAMBOAT SPGS MOCLDY    45  36  69 SE5       30.14S
WALDEN         NOT AVBL
$$

COZ006>008-011-310900-
...WEST CENTRAL VALLEYS...

CITY           SKY/WX    TMP DP  RH WIND       PRES   REMARKS
GRAND JUNCTION FAIR      55  34  45 SE5       30.01R
MONTROSE       FAIR      50  33  52 SE10      30.07F
EAGLE          FAIR      43  34  70 CALM      30.18S
RIFLE          FAIR      46  34  62 E5        30.09S
DELTA          FAIR      56  33  42 NE6       30.04S
NUCLA          FAIR      52  32  46 E5        30.09S
$$

COZ017>023-064>068-310900-
...SOUTHWEST COLORADO...

CITY           SKY/WX    TMP DP  RH WIND       PRES   REMARKS
DURANGO        FAIR      44  28  53 VRB3      30.06F
CORTEZ         FAIR      44  31  60 E7        30.03F
PAGOSA SPRINGS FAIR      50  26  38 CALM      30.12F
TELLURIDE      FAIR      41  29  63 E6        30.24F
WOLF CREEK PAS FAIR      37  18  44 NE5       30.39S
$$

COZ009-010-012-014-032>034-037-058>063-310900-
...CENTRAL COLORADO...

CITY           SKY/WX    TMP DP  RH WIND       PRES   REMARKS
ASPEN          FAIR      38  32  79 S5        30.18F
BUENA VISTA    FAIR      43  31  64 NW10G17   30.20R
COPPER MTN     NOT AVBL
BERTHOUD PASS  FAIR      30  21  69 N15       30.38F WCI  19
COTTONWOOD PAS FAIR      46  23  39 W7        30.28S
GUNNISON       FAIR      39  28  65 N3        30.22S
KREMMLING      FAIR      36  32  87 CALM      30.21S
LEADVILLE      FAIR      29  23  78 NE3       30.27F
SALIDA         FAIR      44  31  62 W7        30.26R
SUNLIGHT       FAIR      39  28  65 NE6       30.35S
WILKERSON PASS FAIR      37  23  56 NE8       30.38R
$$

COZ069>075-310900-
...SAN LUIS VALLEY/SANGRE DE CRISTO MOUNTAINS...

CITY           SKY/WX    TMP DP  RH WIND       PRES   REMARKS
ALAMOSA        FAIR      41  35  79 SW5       30.14R
LA VETA PASS   FAIR      43  32  65 NE7       30.28F
SAGUACHE       FAIR      45  30  57 NW16      30.16F
$$

COZ035-036-038>040-310900-
...NORTHERN COLORADO FRONT RANGE...

CITY           SKY/WX    TMP DP  RH WIND       PRES   REMARKS
DENVER INTL AP MOCLDY    51  46  83 NE16G25   30.12R
DMNS CITY PARK   N/A     52  44  76 N23G33    30.15R
AURORA         MOCLDY    51  46  84 N14       30.14R
FRONT RANGE AP NOT AVBL
ERIE MUNI ARPT MOCLDY    52  46  80 N14G21    30.16R
BOULDER MUN AP CLOUDY    52  45  76 N6        30.17R
CENTENNIAL     FAIR      52  41  66 NW17      30.12R
BROOMFIELD     CLOUDY    52  45  76 N18G24    30.17R
FORT COLLINS   MOCLDY    52  43  71 N18G26    30.15R
LONGMONT       CLOUDY    55  45  70 N12G21    30.17R
$$

COZ041-046-047-076>085-087-088-310900-
...PIKES PEAK/PALMER DIVIDE AND SOUTHERN FOOTHILLS...

CITY           SKY/WX    TMP DP  RH WIND       PRES   REMARKS
COLO. SPRINGS  FAIR      53  37  54 N7        30.10F
A. F. ACADEMY  FAIR      43  37  81 N8        30.12S
SCHRIEVER AFB  NOT AVBL
ELLICOTT       NOT AVBL
FALCON         FAIR      49  38  65 W7        30.13S
FORT CARSON    FAIR      50  39  65 NW14      30.07S
LIMON          FAIR      46  42  86 N5        30.04R
MONUMENT HILL  FAIR      43  36  75 SW8       30.15S
TRINIDAD       FAIR      50  41  71 W6        30.05S
$$

COZ042>045-048>051-090-091-310900-
...NORTHEAST COLORADO...

CITY           SKY/WX    TMP DP  RH WIND       PRES   REMARKS
GREELEY ARPT   FAIR      50  43  76 N12       30.13R
AKRON          FAIR      52  49  89 NE15      30.06R
BURLINGTON     FAIR      52  46  80 SW6       30.00R
WRAY           NOT AVBL
STERLING       FAIR      52  50  93 N9        30.05R
HOLYOKE        FAIR      54  50  87 N3        30.06R
FORT MORGAN    FAIR      50  46  87 N20       30.08R
$$

COZ086-089-092>099-310900-
...SOUTHEAST COLORADO...

CITY           SKY/WX    TMP DP  RH WIND       PRES   REMARKS
PUEBLO         FAIR      56  46  69 NW8       30.02S
LA JUNTA       FAIR      61  47  59 E8        29.98S
LAMAR          FAIR      61  48  62 CALM      29.94F
SPRINGFIELD      N/A     56  54  93 NE13      30.01R
$$



USA.gov is the U.S. government's official web portal to all federal, state and local government web resources and services.